Regional Weather Roundup
Issued by NWS Albany, NY

Home | Current Version | Previous Version | Text Only | Print | Product List | Glossary On
Versions: 1 2 3 4 5 6 7 8 9 10 11 12 13 14 15 16 17 18 19 20 21 22 23 24 25 26 27 28 29 30 31 32 33 34 35 36 37 38 39 40 41 42 43 44 45 46
000
ASUS41 KALY 241510
RWRALY

NEW YORK STATE HOURLY WEATHER ROUNDUP
NATIONAL WEATHER SERVICE ALBANY NY
1000 AM EST WED DEC 24 2014

NOTE: "FAIR" INDICATES FEW OR NO CLOUDS BELOW 12,000 FEET WITH NO
SIGNIFICANT WEATHER AND/OR NO OBSTRUCTIONS TO VISIBILITY.

NYZ032-033-038>043-046>054-057>066-NYZ062>081-241600-
EAST


CITY           SKY/WX    TMP DP  RH WIND       PRES   REMARKS
ALBANY         LGT RAIN  40  38  93 CALM      29.96S FOG
GLENS FALLS    LGT RAIN  37  36  96 CALM      29.94F VSB 1
POUGHKEEPSIE   CLOUDY    44  43  96 CALM      29.96F FOG
NEWBURGH       LGT RAIN  43  43 100 SE9       29.96F VSB 1
MONTGOMERY     CLOUDY    44  43  96 NE6       29.93F FOG
WHITE PLAINS   FOG       45  44  97 E9        29.96S VSB 1/2
ISLIP          LGT RAIN  48  46  93 E10       29.96S FOG
NEW YORK CITY  LGT RAIN  43  42  97 NE10      29.96F VSB 1/8
CENTRAL PARK   RAIN      44  43  96 VRB5      29.98F FOG
$$

NYZ005>009-017-018-044>046-055-056-241600-
CENTRAL


CITY           SKY/WX    TMP DP  RH WIND       PRES   REMARKS
FULTON         LGT RAIN  45  42  89 SE10      29.75F
SYRACUSE       LGT RAIN  38  38 100 E12       29.77F WCI  30
ROME           RAIN      43  42  97 SE10      29.85F FOG
ELMIRA         LGT RAIN  49  47  93 NE5       29.77F
BINGHAMTON     RAIN      43  43 100 SE10      29.80F FOG
MONTICELLO     CLOUDY    43  43 100 E12       29.91F
$$

NYZ026>034-041>043-241600-
NORTH


CITY           SKY/WX    TMP DP  RH WIND       PRES   REMARKS
WATERTOWN      LGT RAIN  52  46  80 S12G21    29.74F
FORT DRUM      NOT AVBL
MASSENA        MIX PCPN  37  35  92 E7        29.79F FOG     WCI  32
SARANAC LAKE   LGT RAIN  43  42  97 S6        29.82F
PLATTSBURGH    LGT RAIN  40  39  97 SE18      29.89F WCI  31
$$

NYZ001>004-010>016-019>021-241600-
WEST


CITY           SKY/WX    TMP DP  RH WIND       PRES   REMARKS
NIAGARA FALLS  LGT RAIN  50  46  86 S10       29.65S FOG
BUFFALO        CLOUDY    52  46  80 S12       29.67R
DUNKIRK        CLOUDY    53  47  79 S15G23    29.65R
JAMESTOWN      CLOUDY    46  45  93 S12G21    29.67S
WELLSVILLE     CLOUDY    47  44  90 S13G20    29.73S
ROCHESTER      PTSUNNY   52  46  80 S16       29.69S
PENN YAN       LGT RAIN  49  46  90 SW6       29.73F
$$

             KEY
       WCI = WIND CHILL INDEX
       VSB = VISIBILITY
       HX  = HEAT INDEX
$$



USA.gov is the U.S. government's official web portal to all federal, state and local government web resources and services.